Flag for Switzerland Weather past 2 weeks in Horw, Lucerne, Switzerland

Now
62 °F

Cool.


Feels Like: 62 °F
Forecast: 57 / 82 °F
Wind: 1 mph from Southwest

Location: Giswil

Current Time: Jul 31, 2014 at 3:32:33 AM

Latest Report: Jul 31, 2014 at 2:00 AM


Visibility: N/A

Pressure: 30.00 "Hg

Humidity: 99%

Dew point: 62 °F

Location of HorwLocation

Historic Weather in Horw — Graph

°F

Horw temperature yesterday

Maximum temperature yesterday: 65 °F (at 3:00 PM)
Minimum temperature yesterday: 58 °F (at 6:00 AM)
Average temperature yesterday: 62 °F

Past Weeks' High & Low Weather Summary

 TemperatureHumidityPressure
High87 °F (Jul 18, 4:00 PM)100% (Jul 23, 5:00 AM)30.24 "Hg (Jul 23, 5:00 AM)
Low51 °F (Jul 16, 6:00 AM)31% (Jul 18, 4:00 PM)29.75 "Hg (Jul 28, 4:00 PM)
Average65 °F83%29.97 "Hg
* Reported Jul 16 2:00 AM — Jul 31 2:00 AM, Horw, Weather by CustomWeather, © 2014

Note: Actual official high and low records may vary slightly from our data, if they occured in-between our weather recording intervals... More about our weather records

Advertising

Horw weather history for previous 24 hours

 ConditionsComfort  
Time TempWeatherWind HumidityBarometerVisibility
2:00 AM
Jul 31
62 °FCool.1 mph99%30.00 "HgN/A
1:00 AM62 °FCool.No wind99%29.99 "HgN/A
12:00 AM62 °FCool.1 mph99%29.98 "HgN/A
11:00 PM
Jul 30
63 °FMild.1 mph98%29.98 "HgN/A
10:00 PM64 °FMild.2 mph96%29.97 "HgN/A
9:00 PM63 °FMild.1 mph97%29.94 "HgN/A
8:00 PM64 °FMild.1 mph96%29.93 "HgN/A
7:00 PM65 °FMild.1 mph90%29.91 "HgN/A
6:00 PM65 °FMild.2 mph89%29.91 "HgN/A
5:00 PM64 °FMild.1 mph90%29.92 "HgN/A
4:00 PM64 °FMild.No wind86%29.91 "HgN/A
3:00 PM65 °FMild.1 mph85%29.89 "HgN/A
2:00 PM64 °FMild.1 mph85%29.89 "HgN/A
1:00 PM63 °FMild.2 mph89%29.89 "HgN/A
12:00 PM63 °FMild.1 mph90%29.88 "HgN/A
11:00 AM62 °FMild.1 mph88%29.88 "HgN/A
10:00 AM62 °FCool.No wind91%29.87 "HgN/A
9:00 AM61 °FCool.2 mph92%29.87 "HgN/A
8:00 AM60 °FCool.2 mph96%29.85 "HgN/A
7:00 AM59 °FCool.1 mph97%29.85 "HgN/A
6:00 AM58 °FCool.2 mph96%29.85 "HgN/A
5:00 AM58 °FCool.1 mph96%29.85 "HgN/A
4:00 AM59 °FCool.1 mph96%29.85 "HgN/A
3:00 AM59 °FCool.1 mph97%29.88 "HgN/A
Weather by CustomWeather, © 2014

See weather overviewHow to use our weather pages